Theta_e
352 351 349 346 347 347 345 344 348 348 348 350 349 348 347 346 346 345 343 340 343 341
352 347 346 351 348 348 348 350 344 346 344 347 347 344 344 342 337 337 338 343 342 340
344 344 347 347 345 343 340 341 344 344 345 343 341 340 339 338 336 335 336 341 341 340
342 343 342 343 341 344 343 341 338 339 339 337 336 336 337 337 333 339 333 339 340 340
336 336 335 335 337 337 338 342 341 336 335 335 335 334 336 337 339 338 337 337 337 335
336 337 338 338 339 339 339 338 339 337 335 335 334 334 335 336 335 338 338 337 336 337
336 338 339 337 337 336 336 334 333 333 334 333 330 330 331 331 330 330 333 337 337 335
335 335 334 335 334 334 337 335 333 332 332 328 326 326 320 321 319 318 319 321 322 323
332 332 330 329 328 327 325 324 324 324 328 324 323 325 326 319 316 317 317 315 316 319
334 331 328 325 321 319 319 318 319 319 318 320 317 321 323 321 311 310 310 308 308 309
331 327 323 319 318 316 316 315 314 315 313 313 316 320 320 320 309 306 307 305 304 305
323 320 318 316 315 314 312 312 310 311 310 311 312 319 319 313 307 305 304 305 305 308
318 317 314 313 312 311 310 310 310 310 311 314 310 315 317 312 306 301 302 302 304 310
313 314 313 310 309 309 309 309 308 310 310 308 310 312 314 313 302 301 300 301 301 302
Wind_Speed
7 4 4 5 7 5 5 3 4 2 0 6 6 4 3 3 3 5 4 6 5 4
2 3 3 11 8 4 6 1 3 4 4 7 8 6 3 4 4 6 8 8 5 4
2 4 7 6 5 3 1 4 5 5 5 3 3 3 4 3 4 3 3 7 12 4
5 6 5 5 4 4 4 4 4 5 5 5 4 3 3 4 0 3 4 4 7 10
6 6 6 5 4 3 4 5 5 5 5 3 2 3 3 4 3 2 7 3 3 5
6 6 6 6 5 5 5 5 4 3 4 5 4 4 4 3 3 2 4 4 2 5
5 5 6 6 6 6 5 5 5 5 5 6 6 6 5 5 4 2 2 3 3 2
6 5 6 6 5 5 7 6 6 6 6 6 6 5 6 6 6 5 5 5 5 4
6 6 6 6 6 7 6 6 6 6 6 6 4 8 9 7 5 5 6 7 7 7
4 5 6 6 6 6 5 5 5 5 5 4 3 7 8 10 5 5 6 6 6 6
5 6 6 6 5 4 3 4 3 3 3 2 1 4 4 8 4 4 4 4 4 3
5 6 5 4 4 3 4 4 3 2 3 4 4 5 3 7 3 3 4 4 4 2
4 5 4 2 1 1 1 2 4 6 5 6 5 5 7 6 3 2 1 3 4 8
3 4 3 1 1 2 3 4 4 5 3 1 0 3 8 8 3 2 2 3 4 5
Wind_Direction
208 203 205 49 358 315 272 249 295 248 33 132 124 151 92 87 48 358 286 241 217 213
197 291 95 138 214 237 292 231 40 81 92 113 128 145 144 92 46 9 341 301 240 221
46 71 72 84 89 109 61 59 82 74 86 81 77 99 117 97 95 57 353 335 339 286
48 64 71 96 95 76 71 72 80 82 94 108 138 142 102 111 184 72 180 349 349 319
69 71 69 61 61 59 79 59 88 105 122 102 97 128 162 172 160 61 111 123 255 284
83 81 74 71 60 52 73 74 79 95 109 96 95 87 83 102 103 37 111 188 2 314
75 79 93 80 67 67 67 67 58 58 65 82 65 46 42 62 61 89 66 54 73 85
86 76 74 64 61 57 61 60 51 58 68 78 75 75 73 60 50 49 32 22 23 19
97 83 78 73 52 48 44 47 52 52 72 79 79 76 71 76 57 33 25 27 25 19
119 98 76 73 62 45 36 29 42 50 65 82 96 83 71 73 71 68 62 55 32 10
83 80 70 65 56 38 33 31 44 52 68 66 211 157 116 87 70 69 79 68 54 49
86 87 74 54 33 18 28 11 8 317 13 20 320 281 200 116 97 61 32 5 358 5
100 113 104 90 343 330 20 331 342 342 27 321 329 325 137 124 118 130 261 294 297 299
98 131 153 224 298 320 331 349 352 327 323 299 355 161 154 136 129 184 282 302 289 274